GW1851 Weather Reports


Display with metric or nautical units.
time (UTC)temp
F
wind
direction
speed
MPH
gust
MPH
rain 1hr
in
rain 24hr
in
rain mn
in
humidity
%
barometer
mb
20260902065511 80 220 0.0 1.0 0.00 0.00 0.00 78 1015.2
20260902065007 80 215 0.0 1.0 0.00 0.00 0.00 78 1015.3
20260902064502 80 209 0.0 0.0 0.00 0.00 0.00 78 1015.3
20260902063958 80 215 0.0 0.0 0.00 0.00 0.00 78 1015.3
20260902063457 80 226 1.0 1.0 0.00 0.00 0.00 78 1015.4
20260902062953 79 211 0.0 0.0 0.00 0.00 0.00 78 1015.3
20260902062451 79 218 0.0 0.0 0.00 0.00 0.00 79 1015.3
20260902061947 79 203 0.0 0.0 0.00 0.00 0.00 79 1015.5
20260902061442 79 199 0.0 0.0 0.00 0.00 0.00 80 1015.6
20260902060938 78 212 0.0 0.0 0.00 0.00 0.00 82 1015.6
20260902060434 78 213 0.0 0.0 0.00 0.00 0.00 83 1015.6
20260902055929 79 215 0.0 0.0 0.00 0.00 0.00 82 1015.5
20260902055425 80 216 0.0 0.0 0.00 0.00 0.00 79 1015.4
20260902054920 80 213 0.0 0.0 0.00 0.00 0.00 77 1015.8
20260902054416 80 211 0.0 0.0 0.00 0.00 0.00 77 1015.4
20260902053911 80 216 0.0 0.0 0.00 0.00 0.00 76 1015.5
20260902053406 81 214 0.0 0.0 0.00 0.00 0.00 76 1015.5
20260902052905 81 213 1.0 1.0 0.00 0.00 0.00 75 1015.6
20260902052401 81 212 1.0 1.0 0.00 0.00 0.00 75 1015.6
20260902051856 81 219 1.0 1.0 0.00 0.00 0.00 75 1015.5
20260902051355 81 214 0.0 0.0 0.00 0.00 0.00 75 1015.4
20260902050850 81 213 0.0 0.0 0.00 0.00 0.00 75 1015.5
20260902050349 81 212 0.0 0.0 0.00 0.00 0.00 75 1015.5
20260902045844 81 214 0.0 0.0 0.00 0.00 0.00 75 1015.6
20260902045340 81 212 0.0 0.0 0.00 0.00 0.00 75 1015.4
20260902044836 81 213 0.0 0.0 0.00 0.00 0.00 75 1015.5
20260902044331 81 215 0.0 0.0 0.00 0.00 0.00 75 1015.6
20260902043831 81 213 0.0 0.0 0.00 0.00 0.00 76 1015.2
20260902043327 82 212 0.0 0.0 0.00 0.00 0.00 76 1015.6
20260902042827 82 206 0.0 0.0 0.00 0.00 0.00 76 1015.5
20260902042321 81 214 0.0 0.0 0.00 0.00 0.00 77 1015.4
20260902041816 81 210 0.0 0.0 0.00 0.00 0.00 77 1015.3
20260902041316 81 215 0.0 0.0 0.00 0.00 0.00 78 1015.5
20260902040815 80 217 0.0 0.0 0.00 0.00 0.00 79 1015.3
20260902040311 80 217 0.0 0.0 0.00 0.00 0.00 81 1015.5
20260902035809 79 217 0.0 0.0 0.00 0.00 0.00 83 1015.3
20260902035305 79 217 0.0 0.0 0.00 0.00 0.00 85 1015.6
20260902034804 80 217 0.0 0.0 0.00 0.00 0.00 85 1015.4
20260902034300 80 217 0.0 0.0 0.00 0.00 0.00 83 1015.5
20260902033757 80 217 0.0 0.0 0.00 0.00 0.00 83 1015.4
20260902033253 80 217 0.0 0.0 0.00 0.00 0.00 84 1015.3
20260902032751 80 217 0.0 0.0 0.00 0.00 0.00 84 1015.5
20260902032247 81 217 0.0 0.0 0.00 0.00 0.00 83 1015.3
20260902031746 81 217 0.0 0.0 0.00 0.00 0.00 81 1015.5
20260902031242 82 217 0.0 0.0 0.00 0.00 0.00 79 1015.2
20260902030738 82 217 0.0 0.0 0.00 0.00 0.00 79 1015.4
20260902030237 82 217 0.0 0.0 0.00 0.00 0.00 80 1015.1
20260902025736 82 217 0.0 0.0 0.00 0.00 0.00 80 1015.3
20260902025232 82 217 0.0 0.0 0.00 0.00 0.00 80 1015.2
20260902024726 83 217 0.0 0.0 0.00 0.00 0.00 78 1015.3
20260902024222 83 216 0.0 0.0 0.00 0.00 0.00 77 1015.5
20260902023718 83 216 0.0 0.0 0.00 0.00 0.00 77 1015.3
20260902023213 83 217 0.0 0.0 0.00 0.00 0.00 78 1015.4
20260902022712 82 214 0.0 0.0 0.00 0.00 0.00 78 1015.3
20260902022208 81 214 0.0 0.0 0.00 0.00 0.00 81 1015.2
20260902021703 80 214 0.0 0.0 0.00 0.00 0.00 84 1015.1
20260902021158 80 214 0.0 0.0 0.00 0.00 0.00 89 1015.2
20260902020654 80 214 0.0 0.0 0.00 0.00 0.00 90 1015.1
20260902020150 80 214 0.0 0.0 0.00 0.00 0.00 90 1015.1
20260902015645 80 214 0.0 0.0 0.00 0.00 0.00 88 1015.1
20260902015142 81 214 0.0 0.0 0.00 0.00 0.00 88 1014.8
20260902014637 81 214 0.0 0.0 0.00 0.00 0.00 89 1015.2
20260902014132 81 214 0.0 0.0 0.00 0.00 0.00 88 1014.8
20260902013632 81 214 0.0 0.0 0.00 0.00 0.00 86 1015.0
20260902013128 81 214 0.0 0.0 0.00 0.00 0.00 88 1014.8
20260902012623 82 214 0.0 0.0 0.00 0.00 0.00 88 1014.7
20260902012118 82 214 0.0 0.0 0.00 0.00 0.00 88 1014.7
20260902011614 82 214 0.0 0.0 0.00 0.00 0.00 88 1014.7
20260902011113 82 214 0.0 0.0 0.00 0.00 0.00 88 1014.6
20260902010613 82 214 0.0 0.0 0.00 0.00 0.00 88 1014.7
20260902010109 83 214 0.0 0.0 0.00 0.00 0.00 88 1014.6
20260902005606 83 214 0.0 0.0 0.00 0.00 0.00 87 1014.6
20260902005103 83 214 0.0 0.0 0.00 0.00 0.00 87 1014.6
20260902004602 84 214 0.0 0.0 0.00 0.00 0.00 85 1014.5
20260902004057 84 214 0.0 0.0 0.00 0.00 0.00 85 1014.5
20260902003552 85 214 0.0 0.0 0.00 0.00 0.00 84 1014.4
20260902003048 85 214 0.0 0.0 0.00 0.00 0.00 83 1014.3
20260902002543 86 214 0.0 0.0 0.00 0.00 0.00 82 1014.5
20260902002038 87 214 0.0 0.0 0.00 0.00 0.00 82 1014.4
20260902001533 87 214 0.0 0.0 0.00 0.00 0.00 82 1014.6
20260902001028 87 214 0.0 0.0 0.00 0.00 0.00 80 1014.5
20260902000523 88 214 0.0 0.0 0.00 0.00 0.00 79 1014.5
20260902000018 88 214 0.0 0.0 0.00 0.00 0.00 78 1014.5
20260901235512 89 214 0.0 0.0 0.00 0.00 0.00 76 1014.3
20260901235003 89 214 0.0 0.0 0.00 0.00 0.00 75 1014.6
20260901234501 90 214 0.0 0.0 0.00 0.00 0.00 75 1014.6
20260901233956 90 214 0.0 0.0 0.00 0.00 0.00 72 1014.6
20260901233451 91 214 0.0 0.0 0.00 0.00 0.00 71 1014.6
20260901232947 91 214 0.0 0.0 0.00 0.00 0.00 69 1014.7
20260901232442 92 220 0.0 0.0 0.00 0.00 0.00 67 1014.5
20260901231937 92 220 0.0 1.0 0.00 0.00 0.00 67 1014.7
20260901231434 92 219 1.0 1.0 0.00 0.00 0.00 65 1014.7
20260901230930 92 221 1.0 1.0 0.00 0.00 0.00 64 1014.8
20260901230430 92 219 0.0 1.0 0.00 0.00 0.00 65 1014.8
20260901225925 93 224 1.0 2.0 0.00 0.00 0.00 63 1014.8
20260901225425 93 218 1.0 1.0 0.00 0.00 0.00 62 1014.8
20260901224920 93 216 1.0 1.0 0.00 0.00 0.00 63 1014.8
20260901224416 94 235 1.0 2.0 0.00 0.00 0.00 61 1014.6
20260901223912 94 228 1.0 2.0 0.00 0.00 0.00 61 1014.8
20260901223407 94 229 1.0 2.0 0.00 0.00 0.00 62 1015.0
20260901222903 94 211 1.0 2.0 0.00 0.00 0.00 59 1014.8
20260901222359 94 217 2.0 3.0 0.00 0.00 0.00 59 1015.0
20260901221854 94 210 1.0 2.0 0.00 0.00 0.00 59 1015.0
20260901221349 94 215 1.0 1.0 0.00 0.00 0.00 60 1014.8
20260901220844 95 214 1.0 2.0 0.00 0.00 0.00 59 1014.7
20260901220343 95 207 2.0 2.0 0.00 0.00 0.00 61 1015.0
20260901215842 95 229 2.0 2.0 0.00 0.00 0.00 61 1014.8
20260901215341 95 216 1.0 1.0 0.00 0.00 0.00 58 1014.7
20260901214840 96 228 1.0 1.0 0.00 0.00 0.00 55 1015.0
20260901214339 96 217 2.0 2.0 0.00 0.00 0.00 52 1014.7
20260901213834 96 220 0.0 1.0 0.00 0.00 0.00 50 1014.7
20260901213334 96 91 1.0 3.0 0.00 0.00 0.00 50 1014.8
20260901212828 97 206 1.0 1.0 0.00 0.00 0.00 51 1014.8
20260901212324 96 220 1.0 1.0 0.00 0.00 0.00 53 1015.0
20260901211820 96 206 0.0 1.0 0.00 0.00 0.00 54 1014.8
20260901211316 97 215 1.0 1.0 0.00 0.00 0.00 51 1014.8
20260901210811 96 220 1.0 1.0 0.00 0.00 0.00 52 1015.2
20260901210307 97 219 0.0 0.0 0.00 0.00 0.00 51 1015.2
20260901205803 98 225 1.0 1.0 0.00 0.00 0.00 53 1014.8
20260901205306 98 234 1.0 1.0 0.00 0.00 0.00 50 1015.1
20260901204757 99 230 0.0 1.0 0.00 0.00 0.00 50 1014.8
20260901204253 99 208 1.0 1.0 0.00 0.00 0.00 51 1015.1
20260901203748 99 220 1.0 2.0 0.00 0.00 0.00 48 1015.0
20260901203248 99 217 1.0 1.0 0.00 0.00 0.00 51 1015.2
20260901202742 99 226 0.0 0.0 0.00 0.00 0.00 50 1015.1
20260901202238 99 218 0.0 0.0 0.00 0.00 0.00 51 1015.3
20260901201733 98 219 1.0 1.0 0.00 0.00 0.00 52 1015.1
20260901201232 98 214 3.0 5.0 0.00 0.00 0.00 49 1015.2
20260901200726 99 225 1.0 2.0 0.00 0.00 0.00 49 1015.3
20260901200222 99 210 0.0 1.0 0.00 0.00 0.00 51 1015.3
20260901195720 99 227 1.0 1.0 0.00 0.00 0.00 51 1015.3
20260901195220 99 236 1.0 1.0 0.00 0.00 0.00 54 1015.3
20260901194715 99 223 0.0 0.0 0.00 0.00 0.00 50 1015.3
20260901194205 98 230 1.0 2.0 0.00 0.00 0.00 50 1015.6
20260901193701 98 226 2.0 3.0 0.00 0.00 0.00 49 1015.4
20260901193154 99 230 2.0 2.0 0.00 0.00 0.00 51 1015.6
20260901192649 98 224 0.0 1.0 0.00 0.00 0.00 54 1015.7
20260901192144 97 222 1.0 1.0 0.00 0.00 0.00 51 1015.6
20260901191640 97 216 0.0 1.0 0.00 0.00 0.00 53 1015.7
20260901191136 97 261 3.0 3.0 0.00 0.00 0.00 50 1015.8
20260901190632 97 231 2.0 3.0 0.00 0.00 0.00 50 1015.9
20260901190131 97 232 1.0 2.0 0.00 0.00 0.00 56 1015.7
20260901185630 97 224 1.0 1.0 0.00 0.00 0.00 54 1015.9
20260901185128 96 218 1.0 2.0 0.00 0.00 0.00 55 1016.0
20260901184624 96 226 1.0 1.0 0.00 0.00 0.00 54 1016.1
20260901184119 97 223 2.0 3.0 0.00 0.00 0.00 55 1016.0
20260901183614 96 187 2.0 3.0 0.00 0.00 0.00 55 1016.1
20260901183109 97 216 0.0 1.0 0.00 0.00 0.00 57 1016.0
20260901182605 96 225 2.0 2.0 0.00 0.00 0.00 55 1015.9
20260901182104 96 229 1.0 2.0 0.00 0.00 0.00 57 1016.1
20260901181559 95 212 1.0 2.0 0.00 0.00 0.00 61 1016.2
20260901181058 96 233 2.0 2.0 0.00 0.00 0.00 57 1016.4
20260901180557 95 218 0.0 1.0 0.00 0.00 0.00 58 1016.3
20260901180052 95 228 1.0 1.0 0.00 0.00 0.00 57 1016.3
20260901175546 95 242 3.0 3.0 0.00 0.00 0.00 60 1016.2
20260901175045 94 236 1.0 2.0 0.00 0.00 0.00 61 1016.5
20260901174542 94 234 0.0 1.0 0.00 0.00 0.00 59 1016.6
20260901174037 94 218 1.0 2.0 0.00 0.00 0.00 57 1016.7
20260901173532 94 253 2.0 2.0 0.00 0.00 0.00 58 1016.4
20260901173028 94 237 2.0 3.0 0.00 0.00 0.00 57 1016.6
20260901172523 94 226 1.0 2.0 0.00 0.00 0.00 60 1016.4
20260901172021 94 230 2.0 2.0 0.00 0.00 0.00 58 1016.9
20260901171521 94 207 2.0 3.0 0.00 0.00 0.00 56 1016.8
20260901171020 94 228 1.0 1.0 0.00 0.00 0.00 61 1016.7
20260901170514 94 216 0.0 1.0 0.00 0.00 0.00 61 1016.8
20260901170015 93 201 1.0 2.0 0.00 0.00 0.00 61 1016.7
20260901165509 93 233 1.0 1.0 0.00 0.00 0.00 60 1016.8
20260901165004 93 228 1.0 1.0 0.00 0.00 0.00 59 1016.8
20260901164500 93 206 1.0 1.0 0.00 0.00 0.00 61 1016.8
20260901163954 92 220 0.0 1.0 0.00 0.00 0.00 61 1017.1
20260901163450 92 226 0.0 1.0 0.00 0.00 0.00 62 1017.0
20260901162948 93 221 1.0 1.0 0.00 0.00 0.00 63 1017.0
20260901162444 92 220 0.0 0.0 0.00 0.00 0.00 63 1017.0
20260901161943 91 220 0.0 0.0 0.00 0.00 0.00 65 1017.2
20260901161443 91 220 1.0 1.0 0.00 0.00 0.00 61 1017.1
20260901160937 91 223 0.0 1.0 0.00 0.00 0.00 63 1016.9
20260901160433 89 224 0.0 1.0 0.00 0.00 0.00 64 1017.2
20260901155933 89 246 3.0 3.0 0.00 0.00 0.00 64 1017.1
20260901155433 90 210 2.0 3.0 0.00 0.00 0.00 64 1017.2
20260901154929 89 216 0.0 0.0 0.00 0.00 0.00 64 1017.1
20260901154429 90 206 1.0 2.0 0.00 0.00 0.00 67 1017.0
20260901153923 89 225 0.0 0.0 0.00 0.00 0.00 67 1017.0
20260901153418 89 206 0.0 1.0 0.00 0.00 0.00 65 1017.1
20260901152912 88 215 0.0 0.0 0.00 0.00 0.00 68 1017.0
20260901152407 88 239 1.0 2.0 0.00 0.00 0.00 68 1017.2
20260901151901 87 202 0.0 1.0 0.00 0.00 0.00 66 1016.9
20260901151356 87 217 1.0 1.0 0.00 0.00 0.00 67 1017.0
20260901150855 87 196 1.0 2.0 0.00 0.00 0.00 68 1017.1
20260901150353 87 211 1.0 1.0 0.00 0.00 0.00 69 1017.0
20260901145850 86 234 2.0 2.0 0.00 0.00 0.00 70 1016.8
20260901145345 86 241 2.0 2.0 0.00 0.00 0.00 70 1017.1
20260901144840 86 228 2.0 2.0 0.00 0.00 0.00 70 1016.9
20260901144335 85 213 2.0 2.0 0.00 0.00 0.00 72 1016.8
20260901143831 85 154 1.0 1.0 0.00 0.00 0.00 73 1017.2
20260901143327 84 229 2.0 2.0 0.00 0.00 0.00 74 1017.1
20260901142824 84 244 1.0 1.0 0.00 0.00 0.00 71 1017.2
20260901142322 85 241 1.0 2.0 0.00 0.00 0.00 72 1017.1
20260901141817 84 237 2.0 2.0 0.00 0.00 0.00 73 1017.1
20260901141312 84 237 1.0 2.0 0.00 0.00 0.00 74 1017.1
20260901140811 83 202 1.0 1.0 0.00 0.00 0.00 75 1017.0
20260901140309 83 229 2.0 2.0 0.00 0.00 0.00 75 1016.9
20260901135805 82 228 2.0 2.0 0.00 0.00 0.00 76 1017.0
20260901135259 82 242 3.0 3.0 0.00 0.00 0.00 77 1016.9
20260901134755 82 216 1.0 1.0 0.00 0.00 0.00 79 1016.9
20260901134254 82 220 1.0 1.0 0.00 0.00 0.00 78 1016.7
20260901133749 81 212 0.0 1.0 0.00 0.00 0.00 79 1016.7
20260901133249 81 203 0.0 0.0 0.00 0.00 0.00 79 1016.7
20260901132747 81 209 0.0 1.0 0.00 0.00 0.00 79 1017.0
20260901132242 80 213 0.0 0.0 0.00 0.00 0.00 80 1016.9
20260901131737 80 217 0.0 0.0 0.00 0.00 0.00 80 1016.9
20260901131236 79 206 0.0 0.0 0.00 0.00 0.00 81 1016.8
20260901130732 78 216 0.0 0.0 0.00 0.00 0.00 84 1016.8
20260901130231 77 212 0.0 0.0 0.00 0.00 0.00 85 1016.6
20260901125729 76 208 0.0 0.0 0.00 0.00 0.00 87 1016.8
20260901125224 75 210 0.0 0.0 0.00 0.00 0.00 89 1016.6
20260901124719 74 211 0.0 0.0 0.00 0.00 0.00 92 1016.7
20260901124219 74 211 0.0 0.0 0.00 0.00 0.00 92 1016.8
20260901123718 74 212 0.0 0.0 0.00 0.00 0.00 93 1016.8
20260901123213 73 212 0.0 0.0 0.00 0.00 0.00 93 1016.5
20260901122712 73 215 0.0 0.0 0.00 0.00 0.00 94 1016.7
20260901122207 73 212 0.0 0.0 0.00 0.00 0.00 95 1016.5
20260901121701 72 212 0.0 0.0 0.00 0.00 0.00 95 1016.6
20260901121157 72 214 0.0 0.0 0.00 0.00 0.00 96 1016.6
20260901120656 72 214 0.0 0.0 0.00 0.00 0.00 96 1016.4
20260901120151 72 213 0.0 0.0 0.00 0.00 0.00 96 1016.3
20260901115647 72 213 0.0 0.0 0.00 0.00 0.00 97 1016.3
20260901115143 72 213 0.0 0.0 0.00 0.00 0.00 97 1016.1
20260901114639 72 213 0.0 0.0 0.00 0.00 0.00 97 1016.2
20260901114138 72 213 0.0 0.0 0.00 0.00 0.00 97 1016.1
20260901113632 72 213 0.0 0.0 0.00 0.00 0.00 97 1015.9
20260901113127 72 213 0.0 0.0 0.00 0.00 0.00 97 1015.8
20260901112621 72 213 0.0 0.0 0.00 0.00 0.00 97 1016.0
20260901112115 71 213 0.0 0.0 0.00 0.00 0.00 97 1015.7
20260901111615 71 213 0.0 0.0 0.00 0.00 0.00 96 1015.9
20260901111113 72 213 0.0 0.0 0.00 0.00 0.00 96 1015.7
20260901110609 72 213 0.0 0.0 0.00 0.00 0.00 96 1015.9
20260901110104 72 212 0.0 0.0 0.00 0.00 0.00 96 1015.7
20260901105600 72 213 0.0 0.0 0.00 0.00 0.00 96 1015.5
20260901105054 72 213 0.0 0.0 0.00 0.00 0.00 95 1015.6
20260901104551 73 213 0.0 0.0 0.00 0.00 0.00 95 1015.5
20260901104046 73 213 0.0 0.0 0.00 0.00 0.00 94 1015.6
20260901103540 73 212 0.0 0.0 0.00 0.00 0.00 94 1015.7
20260901103036 73 213 0.0 0.0 0.00 0.00 0.00 93 1015.4
20260901102536 73 213 0.0 0.0 0.00 0.00 0.00 93 1015.2
20260901102036 73 213 0.0 0.0 0.00 0.00 0.00 92 1015.2
20260901101532 73 213 0.0 0.0 0.00 0.00 0.00 92 1015.3
20260901101031 74 213 0.0 0.0 0.00 0.00 0.00 91 1015.3
20260901100525 74 213 0.0 0.0 0.00 0.00 0.00 90 1015.4
20260901100025 74 213 0.0 0.0 0.00 0.00 0.00 90 1015.4
20260901095523 74 213 0.0 0.0 0.00 0.00 0.00 90 1015.3
20260901095021 75 213 0.0 0.0 0.00 0.00 0.00 90 1015.3
20260901094516 75 213 0.0 0.0 0.00 0.00 0.00 90 1015.3
20260901094016 75 213 0.0 0.0 0.00 0.00 0.00 89 1015.4
20260901093510 75 217 0.0 0.0 0.00 0.00 0.00 89 1015.5
20260901093005 75 217 0.0 0.0 0.00 0.00 0.00 89 1015.4
20260901092501 75 217 0.0 0.0 0.00 0.00 0.00 88 1015.3
20260901091956 75 217 0.0 0.0 0.00 0.00 0.00 88 1015.4
20260901091451 76 217 0.0 0.0 0.00 0.00 0.00 88 1015.3
20260901090941 76 215 0.0 0.0 0.00 0.00 0.00 88 1015.5
20260901090440 76 215 0.0 0.0 0.00 0.00 0.00 88 1015.4
20260901085936 76 215 0.0 0.0 0.00 0.00 0.00 88 1015.5
20260901085432 76 215 0.0 0.0 0.00 0.00 0.00 87 1015.3
20260901084928 77 215 0.0 0.0 0.00 0.00 0.00 87 1015.4
20260901084424 77 215 0.0 0.0 0.00 0.00 0.00 86 1015.3
20260901083920 77 214 0.0 0.0 0.00 0.00 0.00 86 1015.3
20260901083414 77 213 0.0 0.0 0.00 0.00 0.00 85 1015.2
20260901082912 77 218 0.0 0.0 0.00 0.00 0.00 85 1015.3
20260901082408 77 215 0.0 0.0 0.00 0.00 0.00 84 1015.1
20260901081903 77 220 0.0 0.0 0.00 0.00 0.00 84 1015.3
20260901081358 78 215 0.0 0.0 0.00 0.00 0.00 84 1015.2
20260901080857 78 216 0.0 0.0 0.00 0.00 0.00 84 1015.2
20260901080352 77 218 0.0 0.0 0.00 0.00 0.00 84 1015.4
20260901075846 77 212 0.0 0.0 0.00 0.00 0.00 84 1015.4
20260901075341 77 216 0.0 0.0 0.00 0.00 0.00 85 1015.3
20260901074836 77 216 0.0 0.0 0.00 0.00 0.00 85 1015.2
20260901074331 77 216 0.0 0.0 0.00 0.00 0.00 85 1015.5
20260901073827 77 217 0.0 0.0 0.00 0.00 0.00 85 1015.4
20260901073322 77 217 0.0 0.0 0.00 0.00 0.00 85 1015.3
20260901072818 77 214 0.0 0.0 0.00 0.00 0.00 85 1015.3
20260901072317 77 211 0.0 0.0 0.00 0.00 0.00 85 1015.2
20260901071813 77 217 0.0 0.0 0.00 0.00 0.00 85 1015.1
20260901071311 77 216 0.0 0.0 0.00 0.00 0.00 86 1015.1
20260901070810 78 217 0.0 0.0 0.00 0.00 0.00 85 1015.2
20260901070306 78 213 0.0 0.0 0.00 0.00 0.00 85 1014.8